Terminal Aerodrome Forecast
Issued by NWS North Platte, NE

Home | Current Version | Previous Version | Text Only | Print | Product List | Glossary On
Versions: 1 2 3 4 5 6 7 8 9 10 11 12
000
FTUS43 KLBF 031122
TAFLBF
TAF
KLBF 031122Z 0312/0412 19007KT P6SM OVC060
     FM031700 20011KT P6SM SCT200
     FM040300 29005KT P6SM SKC=

USA.gov is the U.S. government's official web portal to all federal, state and local government web resources and services.